Tracking 32968 objects as of 17-Jan-2026
HD Live streaming from Space Station
objects crossing your sky now

NOAA 17 DEB

Track NOAA 17 DEB now!
10-day predictions


NORAD ID: 48175
Int'l Code: 2002-032R
Perigee: 703.6 km
Apogee: 731.6 km
Inclination: 98.7 °
Period: 99.0 minutes
Semi major axis: 7088 km
RCS: Unknown
Launch date: June 24, 2002
Source: United States (US)
Launch site: AIR FORCE WESTERN TEST RANGE (AFWTR)

Note: This is SATELLITE DEBRIS
Your satellite tracking list
Your tracking list is empty




NASA's NSSDC Master Catalog

Two Line Element Set (TLE):
1 48175U 02032Q   26017.14712198  .00011765  00000-0  27518-2 0  9996
2 48175  98.7345 353.4385 0019796  19.1180 341.0754 14.54666034252851
Source of the keplerian elements: AFSPC